#datetime,building,power
2023-09-07T00:00:00,sdl,7.22
2023-09-07T00:01:00,sdl,7.11
2023-09-07T00:02:00,sdl,5.00
2023-09-07T00:03:00,sdl,5.40
2023-09-07T00:04:00,sdl,4.70
2023-09-07T00:05:00,sdl,5.06
2023-09-07T00:06:00,sdl,5.23
2023-09-07T00:07:00,sdl,5.27
2023-09-07T00:08:00,sdl,5.33
2023-09-07T00:09:00,sdl,5.66
2023-09-07T00:10:00,sdl,5.24
2023-09-07T00:11:00,sdl,5.32
2023-09-07T00:12:00,sdl,5.42
2023-09-07T00:13:00,sdl,5.26
2023-09-07T00:14:00,sdl,5.28
2023-09-07T00:15:00,sdl,5.08
2023-09-07T00:16:00,sdl,5.49
2023-09-07T00:17:00,sdl,4.62
2023-09-07T00:18:00,sdl,4.77
2023-09-07T00:19:00,sdl,4.74
2023-09-07T00:20:00,sdl,4.88
2023-09-07T00:21:00,sdl,5.02
2023-09-07T00:22:00,sdl,4.83
2023-09-07T00:23:00,sdl,5.01
2023-09-07T00:24:00,sdl,5.16
2023-09-07T00:25:00,sdl,5.16
2023-09-07T00:26:00,sdl,5.14
2023-09-07T00:27:00,sdl,5.12
2023-09-07T00:28:00,sdl,5.02
2023-09-07T00:29:00,sdl,4.99
2023-09-07T00:30:00,sdl,7.33
2023-09-07T00:31:00,sdl,7.30
2023-09-07T00:32:00,sdl,6.95
2023-09-07T00:33:00,sdl,7.09
2023-09-07T00:34:00,sdl,6.99
2023-09-07T00:35:00,sdl,6.92
2023-09-07T00:36:00,sdl,7.29
2023-09-07T00:37:00,sdl,7.05
2023-09-07T00:38:00,sdl,7.08
2023-09-07T00:39:00,sdl,7.57
2023-09-07T00:40:00,sdl,7.48
2023-09-07T00:41:00,sdl,7.53
2023-09-07T00:42:00,sdl,5.12
2023-09-07T00:43:00,sdl,5.26
2023-09-07T00:44:00,sdl,5.32
2023-09-07T00:45:00,sdl,5.51
2023-09-07T00:46:00,sdl,4.89
2023-09-07T00:47:00,sdl,4.93
2023-09-07T00:48:00,sdl,4.95
2023-09-07T00:49:00,sdl,4.88
2023-09-07T00:50:00,sdl,5.24
2023-09-07T00:51:00,sdl,5.16
2023-09-07T00:52:00,sdl,5.04
2023-09-07T00:53:00,sdl,5.02
2023-09-07T00:54:00,sdl,4.54
2023-09-07T00:55:00,sdl,4.72
2023-09-07T00:56:00,sdl,4.87
2023-09-07T00:57:00,sdl,4.97
2023-09-07T00:58:00,sdl,7.17
2023-09-07T00:59:00,sdl,7.05
2023-09-07T01:00:00,sdl,7.24
2023-09-07T01:01:00,sdl,7.54
2023-09-07T01:02:00,sdl,7.50
2023-09-07T01:03:00,sdl,7.33
2023-09-07T01:04:00,sdl,7.00
2023-09-07T01:05:00,sdl,6.98
2023-09-07T01:06:00,sdl,7.00
2023-09-07T01:07:00,sdl,6.94
2023-09-07T01:08:00,sdl,7.07
2023-09-07T01:09:00,sdl,7.17
2023-09-07T01:10:00,sdl,7.51
2023-09-07T01:11:00,sdl,7.58
2023-09-07T01:12:00,sdl,7.63
2023-09-07T01:13:00,sdl,7.83
2023-09-07T01:14:00,sdl,7.98
2023-09-07T01:15:00,sdl,5.19
2023-09-07T01:16:00,sdl,5.16
2023-09-07T01:17:00,sdl,5.14
2023-09-07T01:18:00,sdl,4.89
2023-09-07T01:19:00,sdl,4.68
2023-09-07T01:20:00,sdl,5.29
2023-09-07T01:21:00,sdl,5.18
2023-09-07T01:22:00,sdl,5.15
2023-09-07T01:23:00,sdl,5.22
2023-09-07T01:24:00,sdl,5.07
2023-09-07T01:25:00,sdl,5.02
2023-09-07T01:26:00,sdl,4.90
2023-09-07T01:27:00,sdl,5.09
2023-09-07T01:28:00,sdl,5.06
2023-09-07T01:29:00,sdl,5.01
2023-09-07T01:30:00,sdl,5.36
2023-09-07T01:31:00,sdl,5.26
2023-09-07T01:32:00,sdl,6.31
2023-09-07T01:33:00,sdl,5.90
2023-09-07T01:34:00,sdl,5.39
2023-09-07T01:35:00,sdl,5.29
2023-09-07T01:36:00,sdl,5.23
2023-09-07T01:37:00,sdl,5.32
2023-09-07T01:38:00,sdl,5.19
2023-09-07T01:39:00,sdl,5.51
2023-09-07T01:40:00,sdl,5.83
2023-09-07T01:41:00,sdl,5.79
2023-09-07T01:42:00,sdl,6.16
2023-09-07T01:43:00,sdl,6.31
2023-09-07T01:44:00,sdl,5.94
2023-09-07T01:45:00,sdl,4.96
2023-09-07T01:46:00,sdl,4.95
2023-09-07T01:47:00,sdl,7.14
2023-09-07T01:48:00,sdl,7.13
2023-09-07T01:49:00,sdl,7.14
2023-09-07T01:50:00,sdl,6.94
2023-09-07T01:51:00,sdl,7.43
2023-09-07T01:52:00,sdl,7.58
2023-09-07T01:53:00,sdl,7.49
2023-09-07T01:54:00,sdl,7.44
2023-09-07T01:55:00,sdl,7.41
2023-09-07T01:56:00,sdl,7.38
2023-09-07T01:57:00,sdl,6.96
2023-09-07T01:58:00,sdl,7.03
2023-09-07T01:59:00,sdl,7.13
2023-09-07T02:00:00,sdl,7.22
2023-09-07T02:01:00,sdl,8.97
2023-09-07T02:02:00,sdl,9.16
2023-09-07T02:03:00,sdl,9.65
2023-09-07T02:04:00,sdl,7.39
2023-09-07T02:05:00,sdl,7.48
2023-09-07T02:06:00,sdl,11.68
2023-09-07T02:07:00,sdl,11.78
2023-09-07T02:08:00,sdl,11.97
2023-09-07T02:09:00,sdl,11.84
2023-09-07T02:10:00,sdl,12.12
2023-09-07T02:11:00,sdl,11.92
2023-09-07T02:12:00,sdl,11.43
2023-09-07T02:13:00,sdl,11.39
2023-09-07T02:14:00,sdl,11.50
2023-09-07T02:15:00,sdl,11.63
2023-09-07T02:16:00,sdl,11.69
2023-09-07T02:17:00,sdl,11.80
2023-09-07T02:18:00,sdl,12.15
2023-09-07T02:19:00,sdl,12.16
2023-09-07T02:20:00,sdl,12.54
2023-09-07T02:21:00,sdl,12.35
2023-09-07T02:22:00,sdl,12.25
2023-09-07T02:23:00,sdl,12.41
2023-09-07T02:24:00,sdl,12.45
2023-09-07T02:25:00,sdl,12.53
2023-09-07T02:26:00,sdl,12.60
2023-09-07T02:27:00,sdl,12.34
2023-09-07T02:28:00,sdl,12.38
2023-09-07T02:29:00,sdl,12.59
2023-09-07T02:30:00,sdl,12.69
2023-09-07T02:31:00,sdl,12.72
2023-09-07T02:32:00,sdl,13.54
2023-09-07T02:33:00,sdl,12.70
2023-09-07T02:34:00,sdl,12.87
2023-09-07T02:35:00,sdl,12.86
2023-09-07T02:36:00,sdl,15.09
2023-09-07T02:37:00,sdl,15.03
2023-09-07T02:38:00,sdl,15.44
2023-09-07T02:39:00,sdl,15.70
2023-09-07T02:40:00,sdl,15.02
2023-09-07T02:41:00,sdl,15.14
2023-09-07T02:42:00,sdl,15.20
2023-09-07T02:43:00,sdl,14.65
2023-09-07T02:44:00,sdl,14.45
2023-09-07T02:45:00,sdl,15.10
2023-09-07T02:46:00,sdl,14.45
2023-09-07T02:47:00,sdl,14.48
2023-09-07T02:48:00,sdl,14.50
2023-09-07T02:49:00,sdl,14.55
2023-09-07T02:50:00,sdl,12.50
2023-09-07T02:51:00,sdl,12.55
2023-09-07T02:52:00,sdl,12.54
2023-09-07T02:53:00,sdl,12.49
2023-09-07T02:54:00,sdl,12.65
2023-09-07T02:55:00,sdl,12.61
2023-09-07T02:56:00,sdl,12.86
2023-09-07T02:57:00,sdl,12.72
2023-09-07T02:58:00,sdl,12.73
2023-09-07T02:59:00,sdl,12.28
2023-09-07T03:00:00,sdl,12.21
2023-09-07T03:01:00,sdl,12.29
2023-09-07T03:02:00,sdl,12.28
2023-09-07T03:03:00,sdl,12.30
2023-09-07T03:04:00,sdl,12.31
2023-09-07T03:05:00,sdl,12.25
2023-09-07T03:06:00,sdl,11.96
2023-09-07T03:07:00,sdl,15.14
2023-09-07T03:08:00,sdl,15.18
2023-09-07T03:09:00,sdl,14.72
2023-09-07T03:10:00,sdl,14.65
2023-09-07T03:11:00,sdl,14.72
2023-09-07T03:12:00,sdl,14.65
2023-09-07T03:13:00,sdl,14.65
2023-09-07T03:14:00,sdl,14.64
2023-09-07T03:15:00,sdl,14.69
2023-09-07T03:16:00,sdl,14.67
2023-09-07T03:17:00,sdl,14.45
2023-09-07T03:18:00,sdl,14.27
2023-09-07T03:19:00,sdl,14.48
2023-09-07T03:20:00,sdl,14.41
2023-09-07T03:21:00,sdl,14.30
2023-09-07T03:22:00,sdl,12.05
2023-09-07T03:23:00,sdl,12.04
2023-09-07T03:24:00,sdl,12.12
2023-09-07T03:25:00,sdl,12.10
2023-09-07T03:26:00,sdl,12.05
2023-09-07T03:27:00,sdl,12.22
2023-09-07T03:28:00,sdl,12.24
2023-09-07T03:29:00,sdl,12.22
2023-09-07T03:30:00,sdl,12.25
2023-09-07T03:31:00,sdl,12.47
2023-09-07T03:32:00,sdl,12.43
2023-09-07T03:33:00,sdl,12.48
2023-09-07T03:34:00,sdl,12.80
2023-09-07T03:35:00,sdl,12.61
2023-09-07T03:36:00,sdl,12.62
2023-09-07T03:37:00,sdl,12.81
2023-09-07T03:38:00,sdl,12.57
2023-09-07T03:39:00,sdl,12.21
2023-09-07T03:40:00,sdl,12.22
2023-09-07T03:41:00,sdl,12.21
2023-09-07T03:42:00,sdl,12.12
2023-09-07T03:43:00,sdl,13.62
2023-09-07T03:44:00,sdl,12.15
2023-09-07T03:45:00,sdl,12.20
2023-09-07T03:46:00,sdl,12.24
2023-09-07T03:47:00,sdl,12.37
2023-09-07T03:48:00,sdl,12.29
2023-09-07T03:49:00,sdl,12.60
2023-09-07T03:50:00,sdl,12.70
2023-09-07T03:51:00,sdl,12.56
2023-09-07T03:52:00,sdl,14.96
2023-09-07T03:53:00,sdl,14.93
2023-09-07T03:54:00,sdl,14.92
2023-09-07T03:55:00,sdl,14.73
2023-09-07T03:56:00,sdl,14.52
2023-09-07T03:57:00,sdl,14.81
2023-09-07T03:58:00,sdl,14.43
2023-09-07T03:59:00,sdl,14.99
2023-09-07T04:00:00,sdl,14.23
2023-09-07T04:01:00,sdl,14.32
2023-09-07T04:02:00,sdl,14.42
2023-09-07T04:03:00,sdl,14.28
2023-09-07T04:04:00,sdl,14.18
2023-09-07T04:05:00,sdl,14.43
2023-09-07T04:06:00,sdl,14.80
2023-09-07T04:07:00,sdl,15.19
2023-09-07T04:08:00,sdl,14.63
2023-09-07T04:09:00,sdl,14.61
2023-09-07T04:10:00,sdl,14.69
2023-09-07T04:11:00,sdl,14.86
2023-09-07T04:12:00,sdl,12.56
2023-09-07T04:13:00,sdl,11.96
2023-09-07T04:14:00,sdl,12.10
2023-09-07T04:15:00,sdl,12.49
2023-09-07T04:16:00,sdl,12.05
2023-09-07T04:17:00,sdl,12.08
2023-09-07T04:18:00,sdl,12.04
2023-09-07T04:19:00,sdl,12.20
2023-09-07T04:20:00,sdl,12.14
2023-09-07T04:21:00,sdl,11.97
2023-09-07T04:22:00,sdl,11.98
2023-09-07T04:23:00,sdl,12.17
2023-09-07T04:24:00,sdl,12.39
2023-09-07T04:25:00,sdl,12.35
2023-09-07T04:26:00,sdl,12.38
2023-09-07T04:27:00,sdl,12.36
2023-09-07T04:28:00,sdl,12.38
2023-09-07T04:29:00,sdl,12.36
2023-09-07T04:30:00,sdl,12.48
2023-09-07T04:31:00,sdl,12.82
2023-09-07T04:32:00,sdl,12.30
2023-09-07T04:33:00,sdl,11.90
2023-09-07T04:34:00,sdl,12.28
2023-09-07T04:35:00,sdl,12.18
2023-09-07T04:36:00,sdl,14.09
2023-09-07T04:37:00,sdl,14.10
2023-09-07T04:38:00,sdl,14.21
2023-09-07T04:39:00,sdl,14.26
2023-09-07T04:40:00,sdl,14.28
2023-09-07T04:41:00,sdl,14.17
2023-09-07T04:42:00,sdl,14.15
2023-09-07T04:43:00,sdl,14.34
2023-09-07T04:44:00,sdl,14.17
2023-09-07T04:45:00,sdl,14.43
2023-09-07T04:46:00,sdl,12.75
2023-09-07T04:47:00,sdl,12.19
2023-09-07T04:48:00,sdl,12.80
2023-09-07T04:49:00,sdl,12.88
2023-09-07T04:50:00,sdl,12.98
2023-09-07T04:51:00,sdl,13.34
2023-09-07T04:52:00,sdl,12.63
2023-09-07T04:53:00,sdl,12.59
2023-09-07T04:54:00,sdl,12.19
2023-09-07T04:55:00,sdl,12.35
2023-09-07T04:56:00,sdl,12.30
2023-09-07T04:57:00,sdl,13.00
2023-09-07T04:58:00,sdl,12.40
2023-09-07T04:59:00,sdl,12.30
2023-09-07T05:00:00,sdl,12.25
2023-09-07T05:01:00,sdl,12.57
2023-09-07T05:02:00,sdl,12.63
2023-09-07T05:03:00,sdl,14.96
2023-09-07T05:04:00,sdl,14.49
2023-09-07T05:05:00,sdl,14.47
2023-09-07T05:06:00,sdl,14.85
2023-09-07T05:07:00,sdl,14.86
2023-09-07T05:08:00,sdl,14.84
2023-09-07T05:09:00,sdl,14.86
2023-09-07T05:10:00,sdl,15.05
2023-09-07T05:11:00,sdl,14.82
2023-09-07T05:12:00,sdl,14.93
2023-09-07T05:13:00,sdl,15.04
2023-09-07T05:14:00,sdl,14.84
2023-09-07T05:15:00,sdl,14.77
2023-09-07T05:16:00,sdl,14.87
2023-09-07T05:17:00,sdl,14.50
2023-09-07T05:18:00,sdl,14.53
2023-09-07T05:19:00,sdl,14.42
2023-09-07T05:20:00,sdl,14.45
2023-09-07T05:21:00,sdl,14.40
2023-09-07T05:22:00,sdl,14.71
2023-09-07T05:23:00,sdl,12.34
2023-09-07T05:24:00,sdl,12.32
2023-09-07T05:25:00,sdl,12.41
2023-09-07T05:26:00,sdl,12.49
2023-09-07T05:27:00,sdl,12.52
2023-09-07T05:28:00,sdl,12.46
2023-09-07T05:29:00,sdl,12.41
2023-09-07T05:30:00,sdl,13.13
2023-09-07T05:31:00,sdl,13.13
2023-09-07T05:32:00,sdl,12.61
2023-09-07T05:33:00,sdl,12.79
2023-09-07T05:34:00,sdl,12.74
2023-09-07T05:35:00,sdl,12.57
2023-09-07T05:36:00,sdl,12.71
2023-09-07T05:37:00,sdl,12.55
2023-09-07T05:38:00,sdl,12.63
2023-09-07T05:39:00,sdl,13.16
2023-09-07T05:40:00,sdl,12.57
2023-09-07T05:41:00,sdl,12.57
2023-09-07T05:42:00,sdl,12.23
2023-09-07T05:43:00,sdl,12.48
2023-09-07T05:44:00,sdl,12.36
2023-09-07T05:45:00,sdl,12.47
2023-09-07T05:46:00,sdl,13.17
2023-09-07T05:47:00,sdl,12.70
2023-09-07T05:48:00,sdl,12.38
2023-09-07T05:49:00,sdl,12.19
2023-09-07T05:50:00,sdl,12.42
2023-09-07T05:51:00,sdl,12.20
2023-09-07T05:52:00,sdl,12.19
2023-09-07T05:53:00,sdl,12.28
2023-09-07T05:54:00,sdl,12.42
2023-09-07T05:55:00,sdl,15.02
2023-09-07T05:56:00,sdl,14.82
2023-09-07T05:57:00,sdl,15.50
2023-09-07T05:58:00,sdl,15.32
2023-09-07T05:59:00,sdl,14.87
2023-09-07T06:00:00,sdl,14.94
2023-09-07T06:01:00,sdl,14.93
2023-09-07T06:02:00,sdl,14.84
2023-09-07T06:03:00,sdl,14.86
2023-09-07T06:04:00,sdl,14.93
2023-09-07T06:05:00,sdl,14.83
2023-09-07T06:06:00,sdl,14.80
2023-09-07T06:07:00,sdl,14.54
2023-09-07T06:08:00,sdl,14.44
2023-09-07T06:09:00,sdl,14.46
2023-09-07T06:10:00,sdl,14.40
2023-09-07T06:11:00,sdl,14.49
2023-09-07T06:12:00,sdl,14.31
2023-09-07T06:13:00,sdl,12.33
2023-09-07T06:14:00,sdl,12.34
2023-09-07T06:15:00,sdl,12.28
2023-09-07T06:16:00,sdl,12.34
2023-09-07T06:17:00,sdl,12.35
2023-09-07T06:18:00,sdl,12.28
2023-09-07T06:19:00,sdl,12.22
2023-09-07T06:20:00,sdl,12.22
2023-09-07T06:21:00,sdl,12.22
2023-09-07T06:22:00,sdl,12.27
2023-09-07T06:23:00,sdl,12.80
2023-09-07T06:24:00,sdl,13.27
2023-09-07T06:25:00,sdl,12.76
2023-09-07T06:26:00,sdl,12.33
2023-09-07T06:27:00,sdl,12.27
2023-09-07T06:28:00,sdl,12.31
2023-09-07T06:29:00,sdl,12.33
2023-09-07T06:30:00,sdl,12.30
2023-09-07T06:31:00,sdl,12.53
2023-09-07T06:32:00,sdl,14.57
2023-09-07T06:33:00,sdl,14.64
2023-09-07T06:34:00,sdl,14.64
2023-09-07T06:35:00,sdl,14.30
2023-09-07T06:36:00,sdl,14.83
2023-09-07T06:37:00,sdl,14.20
2023-09-07T06:38:00,sdl,14.22
2023-09-07T06:39:00,sdl,14.19
2023-09-07T06:40:00,sdl,14.21
2023-09-07T06:41:00,sdl,14.27
2023-09-07T06:42:00,sdl,14.17
2023-09-07T06:43:00,sdl,12.30
2023-09-07T06:44:00,sdl,12.31
2023-09-07T06:45:00,sdl,12.16
2023-09-07T06:46:00,sdl,12.19
2023-09-07T06:47:00,sdl,12.34
2023-09-07T06:48:00,sdl,12.65
2023-09-07T06:49:00,sdl,12.26
2023-09-07T06:50:00,sdl,12.72
2023-09-07T06:51:00,sdl,12.61
2023-09-07T06:52:00,sdl,12.43
2023-09-07T06:53:00,sdl,12.45
2023-09-07T06:54:00,sdl,12.51
2023-09-07T06:55:00,sdl,12.53
2023-09-07T06:56:00,sdl,12.56
2023-09-07T06:57:00,sdl,12.61
2023-09-07T06:58:00,sdl,12.59
2023-09-07T06:59:00,sdl,12.52
2023-09-07T07:00:00,sdl,12.75
2023-09-07T07:01:00,sdl,12.55
2023-09-07T07:02:00,sdl,12.55
2023-09-07T07:03:00,sdl,14.50
2023-09-07T07:04:00,sdl,14.37
2023-09-07T07:05:00,sdl,14.19
2023-09-07T07:06:00,sdl,14.15
2023-09-07T07:07:00,sdl,14.19
2023-09-07T07:08:00,sdl,14.63
2023-09-07T07:09:00,sdl,14.42
2023-09-07T07:10:00,sdl,14.91
2023-09-07T07:11:00,sdl,15.01
2023-09-07T07:12:00,sdl,14.87
2023-09-07T07:13:00,sdl,14.92
2023-09-07T07:14:00,sdl,14.45
2023-09-07T07:15:00,sdl,14.85
2023-09-07T07:16:00,sdl,14.94
2023-09-07T07:17:00,sdl,14.94
2023-09-07T07:18:00,sdl,14.92
2023-09-07T07:19:00,sdl,14.78
2023-09-07T07:20:00,sdl,15.28
2023-09-07T07:21:00,sdl,15.34
2023-09-07T07:22:00,sdl,15.22
2023-09-07T07:23:00,sdl,13.34
2023-09-07T07:24:00,sdl,13.11
2023-09-07T07:25:00,sdl,13.04
2023-09-07T07:26:00,sdl,13.00
2023-09-07T07:27:00,sdl,13.13
2023-09-07T07:28:00,sdl,13.05
2023-09-07T07:29:00,sdl,13.10
2023-09-07T07:30:00,sdl,13.01
2023-09-07T07:31:00,sdl,12.95
2023-09-07T07:32:00,sdl,13.01
2023-09-07T07:33:00,sdl,12.91
2023-09-07T07:34:00,sdl,13.04
2023-09-07T07:35:00,sdl,13.01
2023-09-07T07:36:00,sdl,13.67
2023-09-07T07:37:00,sdl,13.04
2023-09-07T07:38:00,sdl,13.07
2023-09-07T07:39:00,sdl,13.09
2023-09-07T07:40:00,sdl,13.19
2023-09-07T07:41:00,sdl,13.07
2023-09-07T07:42:00,sdl,12.95
2023-09-07T07:43:00,sdl,12.95
2023-09-07T07:44:00,sdl,12.80
2023-09-07T07:45:00,sdl,12.82
2023-09-07T07:46:00,sdl,12.78
2023-09-07T07:47:00,sdl,12.65
2023-09-07T07:48:00,sdl,12.74
2023-09-07T07:49:00,sdl,12.93
2023-09-07T07:50:00,sdl,12.75
2023-09-07T07:51:00,sdl,12.95
2023-09-07T07:52:00,sdl,12.77
2023-09-07T07:53:00,sdl,12.81
2023-09-07T07:54:00,sdl,13.24
2023-09-07T07:55:00,sdl,12.64
2023-09-07T07:56:00,sdl,12.95
2023-09-07T07:57:00,sdl,12.81
2023-09-07T07:58:00,sdl,13.00
2023-09-07T07:59:00,sdl,13.49
2023-09-07T08:00:00,sdl,15.58
2023-09-07T08:01:00,sdl,15.54
2023-09-07T08:02:00,sdl,15.63
2023-09-07T08:03:00,sdl,15.90
2023-09-07T08:04:00,sdl,15.54
2023-09-07T08:05:00,sdl,15.31
2023-09-07T08:06:00,sdl,14.99
2023-09-07T08:07:00,sdl,15.47
2023-09-07T08:08:00,sdl,15.51
2023-09-07T08:09:00,sdl,15.08
2023-09-07T08:10:00,sdl,14.86
2023-09-07T08:11:00,sdl,15.41
2023-09-07T08:12:00,sdl,15.32
2023-09-07T08:13:00,sdl,15.38
2023-09-07T08:14:00,sdl,15.31
2023-09-07T08:15:00,sdl,15.31
2023-09-07T08:16:00,sdl,15.29
2023-09-07T08:17:00,sdl,13.28
2023-09-07T08:18:00,sdl,13.02
2023-09-07T08:19:00,sdl,13.11
2023-09-07T08:20:00,sdl,13.19
2023-09-07T08:21:00,sdl,13.19
2023-09-07T08:22:00,sdl,13.37
2023-09-07T08:23:00,sdl,13.17
2023-09-07T08:24:00,sdl,13.16
2023-09-07T08:25:00,sdl,13.09
2023-09-07T08:26:00,sdl,13.01
2023-09-07T08:27:00,sdl,13.30
2023-09-07T08:28:00,sdl,13.38
2023-09-07T08:29:00,sdl,13.10
2023-09-07T08:30:00,sdl,12.95
2023-09-07T08:31:00,sdl,14.74
2023-09-07T08:32:00,sdl,16.14
2023-09-07T08:33:00,sdl,16.64
2023-09-07T08:34:00,sdl,19.62
2023-09-07T08:35:00,sdl,19.27
2023-09-07T08:36:00,sdl,19.61
2023-09-07T08:37:00,sdl,19.82
2023-09-07T08:38:00,sdl,21.26
2023-09-07T08:39:00,sdl,21.49
2023-09-07T08:40:00,sdl,21.16
2023-09-07T08:41:00,sdl,24.13
2023-09-07T08:42:00,sdl,23.99
2023-09-07T08:43:00,sdl,24.08
2023-09-07T08:44:00,sdl,24.20
2023-09-07T08:45:00,sdl,24.82
2023-09-07T08:46:00,sdl,22.89
2023-09-07T08:47:00,sdl,22.89
2023-09-07T08:48:00,sdl,24.23
2023-09-07T08:49:00,sdl,25.02
2023-09-07T08:50:00,sdl,25.77
2023-09-07T08:51:00,sdl,25.55
2023-09-07T08:52:00,sdl,25.99
2023-09-07T08:53:00,sdl,25.90
2023-09-07T08:54:00,sdl,25.98
2023-09-07T08:55:00,sdl,26.08
2023-09-07T08:56:00,sdl,26.08
2023-09-07T08:57:00,sdl,26.36
2023-09-07T08:58:00,sdl,25.91
2023-09-07T08:59:00,sdl,25.57
2023-09-07T09:00:00,sdl,25.76
2023-09-07T09:01:00,sdl,25.93
2023-09-07T09:02:00,sdl,25.71
2023-09-07T09:03:00,sdl,25.57
2023-09-07T09:04:00,sdl,25.62
2023-09-07T09:05:00,sdl,25.75
2023-09-07T09:06:00,sdl,25.65
2023-09-07T09:07:00,sdl,27.70
2023-09-07T09:08:00,sdl,27.02
2023-09-07T09:09:00,sdl,26.86
2023-09-07T09:10:00,sdl,26.88
2023-09-07T09:11:00,sdl,26.73
2023-09-07T09:12:00,sdl,26.62
2023-09-07T09:13:00,sdl,26.78
2023-09-07T09:14:00,sdl,27.65
2023-09-07T09:15:00,sdl,27.71
2023-09-07T09:16:00,sdl,26.85
2023-09-07T09:17:00,sdl,26.83
2023-09-07T09:18:00,sdl,26.73
2023-09-07T09:19:00,sdl,26.73
2023-09-07T09:20:00,sdl,26.61
2023-09-07T09:21:00,sdl,26.68
2023-09-07T09:22:00,sdl,26.72
2023-09-07T09:23:00,sdl,26.91
2023-09-07T09:24:00,sdl,27.10
2023-09-07T09:25:00,sdl,26.93
2023-09-07T09:26:00,sdl,26.72
2023-09-07T09:27:00,sdl,26.76
2023-09-07T09:28:00,sdl,26.66
2023-09-07T09:29:00,sdl,26.75
2023-09-07T09:30:00,sdl,25.58
2023-09-07T09:31:00,sdl,25.59
2023-09-07T09:32:00,sdl,25.54
2023-09-07T09:33:00,sdl,25.60
2023-09-07T09:34:00,sdl,25.63
2023-09-07T09:35:00,sdl,25.48
2023-09-07T09:36:00,sdl,25.63
2023-09-07T09:37:00,sdl,25.55
2023-09-07T09:38:00,sdl,25.73
2023-09-07T09:39:00,sdl,25.60
2023-09-07T09:40:00,sdl,25.61
2023-09-07T09:41:00,sdl,26.12
2023-09-07T09:42:00,sdl,26.16
2023-09-07T09:43:00,sdl,26.00
2023-09-07T09:44:00,sdl,25.65
2023-09-07T09:45:00,sdl,25.59
2023-09-07T09:46:00,sdl,25.67
2023-09-07T09:47:00,sdl,25.82
2023-09-07T09:48:00,sdl,25.47
2023-09-07T09:49:00,sdl,26.04
2023-09-07T09:50:00,sdl,25.54
2023-09-07T09:51:00,sdl,25.54
2023-09-07T09:52:00,sdl,25.61
2023-09-07T09:53:00,sdl,25.77
2023-09-07T09:54:00,sdl,26.64
2023-09-07T09:55:00,sdl,26.80
2023-09-07T09:56:00,sdl,26.62
2023-09-07T09:57:00,sdl,26.78
2023-09-07T09:58:00,sdl,26.79
2023-09-07T09:59:00,sdl,26.78
2023-09-07T10:00:00,sdl,27.05
2023-09-07T10:01:00,sdl,26.97
2023-09-07T10:02:00,sdl,27.05
2023-09-07T10:03:00,sdl,26.88
2023-09-07T10:04:00,sdl,26.87
2023-09-07T10:05:00,sdl,26.88
2023-09-07T10:06:00,sdl,26.88
2023-09-07T10:07:00,sdl,27.01
2023-09-07T10:08:00,sdl,27.05
2023-09-07T10:09:00,sdl,27.09
2023-09-07T10:10:00,sdl,27.02
2023-09-07T10:11:00,sdl,26.85
2023-09-07T10:12:00,sdl,26.93
2023-09-07T10:13:00,sdl,26.95
2023-09-07T10:14:00,sdl,26.91
2023-09-07T10:15:00,sdl,27.64
2023-09-07T10:16:00,sdl,26.91
2023-09-07T10:17:00,sdl,26.90
2023-09-07T10:18:00,sdl,26.88
2023-09-07T10:19:00,sdl,26.88
2023-09-07T10:20:00,sdl,27.13
2023-09-07T10:21:00,sdl,25.86
2023-09-07T10:22:00,sdl,25.83
2023-09-07T10:23:00,sdl,25.81
2023-09-07T10:24:00,sdl,25.89
2023-09-07T10:25:00,sdl,25.82
2023-09-07T10:26:00,sdl,25.99
2023-09-07T10:27:00,sdl,25.82
2023-09-07T10:28:00,sdl,25.89
2023-09-07T10:29:00,sdl,25.82
2023-09-07T10:30:00,sdl,26.03
2023-09-07T10:31:00,sdl,25.72
2023-09-07T10:32:00,sdl,25.58
2023-09-07T10:33:00,sdl,25.66
2023-09-07T10:34:00,sdl,25.43
2023-09-07T10:35:00,sdl,21.52
2023-09-07T10:36:00,sdl,21.65
2023-09-07T10:37:00,sdl,20.95
2023-09-07T10:38:00,sdl,23.45
2023-09-07T10:39:00,sdl,23.16
2023-09-07T10:40:00,sdl,23.55
2023-09-07T10:41:00,sdl,23.16
2023-09-07T10:42:00,sdl,26.56
2023-09-07T10:43:00,sdl,26.32
2023-09-07T10:44:00,sdl,26.49
2023-09-07T10:45:00,sdl,26.57
2023-09-07T10:46:00,sdl,26.55
2023-09-07T10:47:00,sdl,26.63
2023-09-07T10:48:00,sdl,26.76
2023-09-07T10:49:00,sdl,26.63
2023-09-07T10:50:00,sdl,27.09
2023-09-07T10:51:00,sdl,26.31
2023-09-07T10:52:00,sdl,25.60
2023-09-07T10:53:00,sdl,25.55
2023-09-07T10:54:00,sdl,25.78
2023-09-07T10:55:00,sdl,25.82
2023-09-07T10:56:00,sdl,26.19
2023-09-07T10:57:00,sdl,25.92
2023-09-07T10:58:00,sdl,26.16
2023-09-07T10:59:00,sdl,25.84
2023-09-07T11:00:00,sdl,25.76
2023-09-07T11:01:00,sdl,25.79
2023-09-07T11:02:00,sdl,25.65
2023-09-07T11:03:00,sdl,26.84
2023-09-07T11:04:00,sdl,26.90
2023-09-07T11:05:00,sdl,26.91
2023-09-07T11:06:00,sdl,26.84
2023-09-07T11:07:00,sdl,26.81
2023-09-07T11:08:00,sdl,26.86
2023-09-07T11:09:00,sdl,26.79
2023-09-07T11:10:00,sdl,27.12
2023-09-07T11:11:00,sdl,27.03
2023-09-07T11:12:00,sdl,27.04
2023-09-07T11:13:00,sdl,27.23
2023-09-07T11:14:00,sdl,26.91
2023-09-07T11:15:00,sdl,27.01
2023-09-07T11:16:00,sdl,27.00
2023-09-07T11:17:00,sdl,27.02
2023-09-07T11:18:00,sdl,27.05
2023-09-07T11:19:00,sdl,27.25
2023-09-07T11:20:00,sdl,27.14
2023-09-07T11:21:00,sdl,26.98
2023-09-07T11:22:00,sdl,26.97
2023-09-07T11:23:00,sdl,27.00
2023-09-07T11:24:00,sdl,27.00
2023-09-07T11:25:00,sdl,26.92
2023-09-07T11:26:00,sdl,26.76
2023-09-07T11:27:00,sdl,26.94
2023-09-07T11:28:00,sdl,26.96
2023-09-07T11:29:00,sdl,27.11
2023-09-07T11:30:00,sdl,26.94
2023-09-07T11:31:00,sdl,26.99
2023-09-07T11:32:00,sdl,26.93
2023-09-07T11:33:00,sdl,24.02
2023-09-07T11:34:00,sdl,21.78
2023-09-07T11:35:00,sdl,21.55
2023-09-07T11:36:00,sdl,21.71
2023-09-07T11:37:00,sdl,21.72
2023-09-07T11:38:00,sdl,21.63
2023-09-07T11:39:00,sdl,21.28
2023-09-07T11:40:00,sdl,21.32
2023-09-07T11:41:00,sdl,21.65
2023-09-07T11:42:00,sdl,21.01
2023-09-07T11:43:00,sdl,21.52
2023-09-07T11:44:00,sdl,23.14
2023-09-07T11:45:00,sdl,23.23
2023-09-07T11:46:00,sdl,23.24
2023-09-07T11:47:00,sdl,23.29
2023-09-07T11:48:00,sdl,23.65
2023-09-07T11:49:00,sdl,23.69
2023-09-07T11:50:00,sdl,23.59
2023-09-07T11:51:00,sdl,25.18
2023-09-07T11:52:00,sdl,25.35
2023-09-07T11:53:00,sdl,25.42
2023-09-07T11:54:00,sdl,25.66
2023-09-07T11:55:00,sdl,25.43
2023-09-07T11:56:00,sdl,25.42
2023-09-07T11:57:00,sdl,25.50
2023-09-07T11:58:00,sdl,25.10
2023-09-07T11:59:00,sdl,25.12
2023-09-07T12:00:00,sdl,25.24
2023-09-07T12:01:00,sdl,25.24
2023-09-07T12:02:00,sdl,25.26
2023-09-07T12:03:00,sdl,26.81
2023-09-07T12:04:00,sdl,26.84
2023-09-07T12:05:00,sdl,26.77
2023-09-07T12:06:00,sdl,26.87
2023-09-07T12:07:00,sdl,26.78
2023-09-07T12:08:00,sdl,26.86
2023-09-07T12:09:00,sdl,26.83
2023-09-07T12:10:00,sdl,26.97
2023-09-07T12:11:00,sdl,26.92
2023-09-07T12:12:00,sdl,26.92
2023-09-07T12:13:00,sdl,26.93
2023-09-07T12:14:00,sdl,26.96
2023-09-07T12:15:00,sdl,26.91
2023-09-07T12:16:00,sdl,27.03
2023-09-07T12:17:00,sdl,27.26
2023-09-07T12:18:00,sdl,27.19
2023-09-07T12:19:00,sdl,27.06
2023-09-07T12:20:00,sdl,26.73
2023-09-07T12:21:00,sdl,26.76
2023-09-07T12:22:00,sdl,26.82
2023-09-07T12:23:00,sdl,25.82
2023-09-07T12:24:00,sdl,25.25
2023-09-07T12:25:00,sdl,25.23
2023-09-07T12:26:00,sdl,25.57
2023-09-07T12:27:00,sdl,25.66
2023-09-07T12:28:00,sdl,25.49
2023-09-07T12:29:00,sdl,25.42
2023-09-07T12:30:00,sdl,25.56
2023-09-07T12:31:00,sdl,25.67
2023-09-07T12:32:00,sdl,25.50
2023-09-07T12:33:00,sdl,25.64
2023-09-07T12:34:00,sdl,25.07
2023-09-07T12:35:00,sdl,25.43
2023-09-07T12:36:00,sdl,25.88
2023-09-07T12:37:00,sdl,25.93
2023-09-07T12:38:00,sdl,27.09
2023-09-07T12:39:00,sdl,26.88
2023-09-07T12:40:00,sdl,26.49
2023-09-07T12:41:00,sdl,26.42
2023-09-07T12:42:00,sdl,26.45
2023-09-07T12:43:00,sdl,21.28
2023-09-07T12:44:00,sdl,17.88
2023-09-07T12:45:00,sdl,17.97
2023-09-07T12:46:00,sdl,18.08
2023-09-07T12:47:00,sdl,18.32
2023-09-07T12:48:00,sdl,18.58
2023-09-07T12:49:00,sdl,18.08
2023-09-07T12:50:00,sdl,18.20
2023-09-07T12:51:00,sdl,17.88
2023-09-07T12:52:00,sdl,15.74
2023-09-07T12:53:00,sdl,16.06
2023-09-07T12:54:00,sdl,15.80
2023-09-07T12:55:00,sdl,15.95
2023-09-07T12:56:00,sdl,15.96
2023-09-07T12:57:00,sdl,15.87
2023-09-07T12:58:00,sdl,15.50
2023-09-07T12:59:00,sdl,15.50
2023-09-07T13:00:00,sdl,16.59
2023-09-07T13:01:00,sdl,15.76
2023-09-07T13:02:00,sdl,15.46
2023-09-07T13:03:00,sdl,15.85
2023-09-07T13:04:00,sdl,15.65
2023-09-07T13:05:00,sdl,16.22
2023-09-07T13:06:00,sdl,15.53
2023-09-07T13:07:00,sdl,15.74
2023-09-07T13:08:00,sdl,15.84
2023-09-07T13:09:00,sdl,16.03
2023-09-07T13:10:00,sdl,15.99
2023-09-07T13:11:00,sdl,18.03
2023-09-07T13:12:00,sdl,18.13
2023-09-07T13:13:00,sdl,18.29
2023-09-07T13:14:00,sdl,18.31
2023-09-07T13:15:00,sdl,17.99
2023-09-07T13:16:00,sdl,17.73
2023-09-07T13:17:00,sdl,18.39
2023-09-07T13:18:00,sdl,19.01
2023-09-07T13:19:00,sdl,18.20
2023-09-07T13:20:00,sdl,17.73
2023-09-07T13:21:00,sdl,17.68
2023-09-07T13:22:00,sdl,18.11